Weather in Tsentralny

Russia / Kostroma Oblast     59°00′58″N   45°04′18″E
temp.,
°C
wind,
m/s
gust,
m/s
humid.,
%
clouds,
%
prec.,
mm/h
press.,
hPa
HPBL,
m
12 april, mon
mon1200:00−1nw119815 0.0 103510
03:00−2nne119581 0.0 103710
06:00−1e11896 0.0 103917
09:00+6sse23595 0.0 1039416
12:00+9sse22525 0.0 1038727
15:00+10sse23585 0.0 1038791
18:00+8se258036 0.0 1037107
21:00+4sse3992100 0.0 1037163
13 april, tue
tue1300:00+4sse31295100 0.0 1036318
03:00+2sse31196100 0.0 1035295
06:00+3sse31098100 0.0 1033319
09:00+7s4789100 0.0 1032354
12:00+12s4874100 0.0 1030615
15:00+15s4971100 0.0 1028744
18:00+13s31081100 0.0 1027353
21:00+10s31288100 0.0 1027297
14 april, wed
wed1400:00+8s31090100 0.0 1026205
03:00+6ssw3108878 0.0 1026184
06:00+6ssw3985100 0.0 1026173
09:00+12ssw486352 0.0 1025356
12:00+16ssw58504 0.0 1023785
15:00+18ssw584674 0.0 10221406
18:00+15ssw3756100 0.0 1021202
21:00+10ssw31071100 0.0 1021183
15 april, thu
thu1500:00+9ssw31178100 0.0 1020239
03:00+7ssw298590 0.0 1020157
06:00+7sw268478 0.0 1020117
09:00+11wsw2367100 0.0 1019398
12:00+14wnw2258100 0.0 1019948
15:00+12nne4469100 0.0 1018529
18:00+7nne5884100 0.0 1019440
21:00+4nne41093100 0.1 1020498
16 april, fri
fri1600:00+3nne51195100 0.1 1020565
03:00+2nne41096100 2.1 1021532
06:00+2nne4108394 0.8 1023864
09:00+5nne59595 0.8 10241325
12:00+6n6848100 0.1 10242146
15:00+6n694295 0.1 10262280
18:00+4n510430 0.0 10272261
21:00+1n411571 0.0 1028734